Starlink 31990

operational
NORAD ID: 60024 Int'l Des: 2024-111 Owner: SPXS Country: US Constellation: starlink
LEOCIRCULAR

About Starlink 31990

Description loading...

Live Position

Loading 3D Globe...

Upcoming Passes

Altitude History

Altitude vs Time

uPlot chart will show altitude changes over time

Two-Line Element Set

1 60024U 24111J 25353.67694955 .00001410 00000-0 59733-4 0 9997
2 60024 53.1605 87.2474 0001220 73.5612 286.5523 15.30189277 86788
Epoch: Dec 19, 2025 • Age: 19 hours

Current Status

Altitude 475.0 km
Velocity 7.63 km/s
Sub-Earth Point 11.07°N, 164.08°W
Launch Date Jun 8, 2024
Age 1.5 years
Type internet

Technical Details

Classification Payload
Mass 730.00 kg
Dry Mass 700.00 kg
Total Mass 730.00 kg
Length 0.30 m
Diameter 4.10 m
Span 29.00 m
Shape Box + pan
Manufacturer SPXS
Bus Type Starlink V2M
Phase Status In Orbit
Owner/State SPXS/US

Large Constellations

Loading constellations...